Back to catalog

NOAA 16 DEB

AliveSSO
NORAD 41302·DEBRIS·🇺🇸 United States

Launched Sep 21, 2000 from Vandenberg Space Force Base

Loading…

Next Passes (next 24 hours)

TLE

FreshSource: Space-Track

Epoch: Sep 13, 2026, 09:27 UTC

1 41302U 00055HE  26256.39408138  .00002332  00000-0  99220-3 0  9992
2 41302  98.7080 317.8653 0017647 308.5556  51.4042 14.26100952551584

Track NOAA 16 DEB in real time with AllMySat

Download on the App Store